Location: Home
(42.5358°N, 72.7383°W)
Time: 19:53:58
(UTC-05:00)

Transit 4A - Pass Details

Date: 03 December 2021
Orbit: 863 x 981 km, 66.8° (Epoch: 23 January)

Event Time Altitude Azimuth Distance (km) Brightness Sun altitude
Rises 01:25:39 0° 336° (NNW) 3,584 - -60.1°
Reaches altitude 10° 01:30:52 10° 13° (NNE) 2,673 - -59.3°
Maximum altitude 01:32:14 11° 26° (NNE) 2,630 - -59.1°
Drops below altitude 10° 01:33:37 10° 39° (NE) 2,688 - -58.9°
Exits shadow 01:38:33 - 74° (ENE) 3,565 11.4 -58.1°
Sets 01:38:55 0° 76° (ENE) 3,658 11.5 -58.1°
